Wind_Speed
1 2 8 10 8 2 2 3 5 4 3 3 7 13 19 20 19 19 29 29 30 28 24 26 27 28 28 26 24 22 20 18 17 15 14 13 12 12 10 9 7 7 6 4
2 8 5 3 4 4 3 2 6 5 1 4 5 14 16 21 9 15 14 11 14 20 24 27 29 31 30 28 26 24 22 18 16 15 14 14 13 13 11 10 9 8 7 6
6 2 4 4 3 4 3 5 4 5 4 2 6 8 5 3 3 5 9 8 7 18 26 29 32 32 31 31 27 24 22 19 17 17 17 16 15 14 13 12 11 10 9 9
6 1 5 4 5 7 4 5 3 1 2 4 3 7 5 7 8 4 8 8 5 11 21 27 31 33 32 30 27 24 22 20 19 18 17 16 14 13 13 13 13 12 11 9
6 7 5 5 7 8 6 3 4 2 2 2 2 2 7 2 5 1 5 2 2 6 19 27 30 30 31 31 29 26 23 21 20 19 17 17 16 14 14 14 14 13 12 11
6 1 6 7 2 4 6 5 5 3 2 2 5 6 4 4 5 3 1 3 3 4 11 20 25 28 30 30 29 26 23 21 20 19 18 17 17 16 15 15 15 15 14 12
2 4 2 3 4 1 2 5 3 3 0 6 3 2 8 4 3 2 1 2 4 6 10 15 21 26 28 30 29 26 24 22 20 19 19 18 18 18 17 16 15 15 14 13
4 6 8 5 6 7 6 7 5 8 4 3 2 7 6 0 4 4 6 6 7 8 10 13 17 21 25 28 29 27 25 22 20 18 18 18 17 17 16 16 16 15 14 14
6 6 1 2 2 2 5 5 3 1 2 2 5 7 7 4 2 4 6 8 8 9 11 13 14 19 23 26 27 25 23 20 19 19 18 17 16 16 16 15 15 16 16 15
3 6 2 3 3 2 4 3 3 1 4 6 5 6 7 6 11 8 8 10 10 10 12 13 14 17 20 23 24 23 22 20 18 17 16 16 15 14 14 15 15 15 14 14
5 4 3 5 8 10 2 3 2 3 4 6 11 9 5 6 8 14 10 15 15 14 15 15 16 17 18 20 21 21 20 19 18 17 15 14 13 12 10 9 10 11 11 11
7 5 8 13 2 2 5 9 9 6 8 5 2 19 1 3 5 13 16 19 18 16 15 17 16 16 18 19 17 17 18 18 17 16 15 14 14 14 14 14 14 13 14 14
7 4 5 6 2 3 5 5 5 1 2 23 13 14 1 1 2 8 20 23 21 20 18 16 18 15 13 12 14 12 12 13 11 10 10 9 9 9 9 11 12 14 15 14
9 6 8 17 7 5 5 7 8 14 10 14 19 24 22 7 10 10 17 25 20 19 19 19 14 16 14 12 11 11 10 10 10 8 7 7 6 7 7 8 8 8 9 9
3 9 6 15 17 11 19 21 21 20 20 18 23 19 27 16 15 20 22 22 21 20 19 17 15 13 12 11 10 9 8 8 9 8 7 6 6 6 7 8 9 11 12 12
6 10 16 22 27 23 25 26 25 24 26 23 28 30 26 11 8 18 27 27 23 23 21 18 16 13 10 9 8 6 5 4 4 4 3 4 5 6 7 9 10 11 13 12
5 4 6 20 17 14 15 22 25 22 21 16 24 26 7 3 7 8 17 19 22 23 20 18 14 11 7 5 5 4 2 1 0 0 1 3 5 6 8 9 11 12 13 14
17 15 5 11 14 19 1 11 8 4 16 19 16 13 12 16 22 29 23 26 23 19 16 12 11 8 4 2 2 1 2 3 3 3 5 6 8 9 11 12 14 15 16 16
11 16 12 11 12 12 1 12 10 12 7 20 11 8 9 15 27 21 20 19 18 13 12 9 5 4 1 1 2 4 4 5 6 7 8 10 11 13 14 15 15 16 17 18
9 2 4 7 12 6 5 20 28 12 2 21 20 11 8 14 2 3 11 12 12 8 6 4 2 1 2 4 5 6 7 8 10 11 12 13 14 15 15 16 16 17 18 20
8 5 5 5 3 2 16 26 22 2 6 22 24 22 21 7 9 12 8 9 7 5 3 4 3 3 5 7 8 10 12 12 12 12 14 14 14 16 17 18 18 18 19 21
5 5 4 5 4 2 33 8 8 11 13 17 21 20 15 12 10 8 6 6 7 8 8 8 8 8 8 10 11 12 12 13 14 15 16 16 17 17 18 20 20 20 21 22
4 4 5 4 3 6 13 11 14 15 14 18 20 19 16 14 14 12 10 11 12 11 11 12 13 11 9 10 14 14 14 17 18 18 17 18 19 19 20 22 22 23 23 23
10 20 3 2 6 11 14 17 17 16 16 15 15 15 15 15 15 15 14 13 14 15 15 15 15 13 14 15 15 17 18 19 20 21 20 21 22 21 22 22 23 24 23 22
6 9 7 3 7 11 11 17 19 19 18 18 19 19 17 18 17 19 19 18 18 17 16 15 17 19 18 18 19 18 20 22 23 24 23 23 24 24 24 24 22 22 20 19
11 4 3 3 12 9 11 21 19 24 24 23 22 23 19 18 20 21 21 20 20 20 20 21 20 21 22 23 22 21 22 24 25 26 26 25 25 25 25 23 22 18 17 17
Wind_Direction
151 120 219 214 201 195 175 203 239 243 222 236 230 265 276 281 243 253 261 263 259 247 234 216 207 204 203 204 206 208 209 209 211 210 207 205 201 195 194 193 195 189 180 169
38 236 220 136 155 171 183 226 257 275 222 189 312 282 276 278 256 239 260 258 259 227 216 206 201 202 204 206 205 207 209 211 212 211 212 211 207 204 204 206 208 206 201 197
183 214 119 148 157 168 218 197 226 233 325 223 318 279 301 296 263 271 259 260 262 217 206 199 199 202 204 205 207 208 209 211 211 213 214 213 212 213 214 214 216 215 214 211
232 226 178 182 225 157 253 208 163 186 54 251 1 289 296 285 305 283 313 228 248 214 207 203 201 202 204 205 206 207 209 212 213 217 219 220 224 227 224 222 223 223 223 222
247 171 179 189 217 165 224 135 143 102 149 12 253 255 266 288 294 23 3 82 229 208 205 203 205 206 204 204 203 204 207 212 216 220 221 223 230 232 229 227 228 229 230 230
245 222 182 207 134 168 140 89 57 59 103 262 213 190 268 205 209 191 91 76 77 164 193 201 204 206 205 202 202 203 207 211 216 221 225 228 230 232 235 237 234 235 233 233
262 218 206 169 111 51 136 92 308 303 226 234 154 187 257 260 232 266 291 118 108 142 163 183 197 200 200 199 200 203 207 210 215 219 223 226 228 231 232 236 239 234 233 235
213 301 180 182 200 183 174 170 179 231 214 251 98 237 243 12 80 85 112 133 132 140 151 163 176 188 193 196 199 203 206 208 213 218 223 228 230 231 231 230 231 233 233 235
181 264 138 174 135 141 177 186 194 125 99 353 220 278 277 157 166 134 139 148 141 143 152 157 165 176 183 190 195 198 202 205 210 217 220 225 228 230 228 227 228 232 234 238
227 293 192 153 121 42 174 165 95 3 241 241 269 268 240 231 224 186 184 174 158 151 148 150 155 164 171 180 186 190 194 199 203 210 211 218 219 221 224 223 224 227 233 238
161 172 238 128 200 180 156 209 187 185 166 234 269 261 209 220 198 195 181 177 168 161 157 156 156 159 165 173 181 186 190 195 198 203 204 209 208 206 211 220 224 228 234 241
210 177 241 225 229 210 193 193 174 202 234 232 250 264 303 251 213 167 164 171 169 167 163 159 158 159 164 167 170 178 184 191 198 197 197 203 211 214 215 221 226 229 234 245
183 224 283 308 18 345 221 201 207 280 35 247 249 259 100 48 181 174 160 175 173 171 171 170 165 167 167 169 170 181 181 180 186 196 205 220 230 240 241 246 252 256 261 260
157 206 199 241 230 125 191 211 211 218 242 262 247 269 259 213 214 192 185 180 175 171 171 167 170 166 170 174 171 175 178 178 180 190 194 208 226 240 253 252 248 256 252 251
182 258 270 279 276 281 271 263 248 231 245 249 263 252 259 244 212 200 184 168 163 163 168 167 166 159 155 158 155 159 163 165 163 171 175 189 204 215 225 232 234 239 246 247
204 262 263 263 265 264 262 252 252 250 253 254 255 255 253 268 160 154 172 166 161 162 167 158 153 149 146 146 139 139 140 158 167 176 194 223 237 243 249 249 247 249 251 254
249 238 237 254 265 264 254 245 245 246 249 247 249 260 343 76 74 129 150 150 137 140 147 140 136 135 137 132 129 130 115 73 95 84 292 274 266 262 263 267 267 264 267 271
253 253 250 264 261 247 347 23 34 43 41 5 1 26 50 81 74 68 90 106 112 123 119 117 120 122 124 112 61 49 25 358 322 278 268 270 273 276 279 282 284 284 282 277
333 267 255 249 244 284 50 25 6 357 45 6 357 36 77 86 72 52 85 101 109 116 118 115 118 123 114 348 3 354 335 298 281 279 283 286 289 289 290 287 286 286 284 284
354 73 358 344 311 286 338 326 316 292 91 1 1 360 344 345 20 68 85 94 101 106 101 105 97 46 322 321 324 305 289 284 284 287 288 290 291 290 290 292 293 291 291 291
324 356 355 336 347 155 341 323 312 347 328 353 7 16 25 40 52 98 81 66 60 60 37 359 339 325 307 302 305 301 296 289 288 290 294 297 296 295 295 294 291 293 293 294
24 324 360 328 296 298 356 359 55 319 2 4 13 20 25 47 52 55 50 39 10 7 353 338 323 310 304 301 298 299 296 291 293 295 296 296 294 294 295 293 293 292 292 288
50 340 344 36 47 20 12 36 23 21 24 12 10 5 6 8 11 358 360 2 356 342 326 321 312 308 303 303 305 303 300 297 296 297 297 295 295 295 293 294 294 294 289 289
359 12 39 250 51 359 32 22 15 11 10 357 359 354 354 356 347 341 341 335 330 333 327 321 313 314 314 310 306 305 301 299 299 298 298 297 296 296 293 291 291 286 288 289
342 335 328 359 6 9 19 4 0 351 353 351 349 347 344 336 335 330 330 332 329 327 320 318 314 312 312 309 306 304 302 301 301 299 299 298 297 294 290 283 285 285 286 287
351 351 354 285 340 308 298 331 332 343 345 343 338 334 338 335 332 329 325 324 324 325 323 316 314 312 311 307 305 306 302 300 298 296 298 297 292 290 288 290 289 282 282 281
Height
1492 1497 1497 1489 1491 1489 1490 1494 1495 1491 1487 1489 1485 1479 1465 1457 1458 1456 1453 1452 1453 1455 1460 1465 1470 1475 1480 1484 1488 1492 1495 1498 1501 1503 1505 1506 1508 1509 1511 1512 1513 1514 1515 1516
1495 1494 1484 1485 1488 1489 1492 1494 1494 1488 1487 1489 1483 1474 1461 1448 1449 1448 1447 1447 1446 1448 1452 1458 1463 1468 1473 1478 1483 1487 1491 1495 1498 1500 1502 1504 1506 1507 1509 1510 1512 1513 1513 1514
1491 1482 1482 1484 1488 1490 1491 1493 1490 1487 1487 1487 1487 1471 1459 1445 1445 1444 1444 1444 1444 1444 1447 1453 1457 1463 1469 1474 1479 1483 1487 1491 1494 1497 1499 1501 1503 1505 1506 1508 1509 1510 1511 1511
1487 1481 1481 1483 1485 1487 1490 1483 1484 1486 1490 1492 1487 1475 1464 1449 1446 1443 1440 1440 1441 1442 1446 1451 1454 1459 1465 1470 1476 1480 1483 1487 1490 1493 1496 1499 1501 1502 1503 1505 1506 1507 1508 1509
1477 1480 1481 1483 1479 1480 1481 1481 1485 1488 1492 1496 1492 1492 1457 1452 1441 1440 1441 1439 1440 1440 1442 1445 1449 1455 1460 1465 1470 1475 1479 1482 1486 1489 1492 1494 1497 1499 1500 1501 1502 1504 1505 1506
1476 1474 1474 1472 1474 1476 1480 1484 1491 1498 1498 1496 1480 1479 1457 1446 1440 1440 1441 1441 1440 1439 1441 1444 1448 1453 1457 1462 1467 1471 1476 1479 1482 1485 1488 1490 1492 1494 1496 1498 1499 1500 1502 1503
1473 1472 1468 1469 1474 1477 1478 1484 1491 1489 1496 1479 1486 1486 1449 1439 1438 1440 1441 1441 1441 1440 1441 1443 1445 1449 1454 1458 1464 1468 1472 1475 1478 1480 1483 1485 1487 1489 1490 1493 1496 1496 1498 1498
1478 1477 1467 1464 1464 1469 1479 1479 1484 1482 1483 1473 1487 1468 1440 1440 1440 1440 1441 1442 1441 1441 1441 1442 1444 1448 1451 1456 1460 1464 1467 1471 1474 1476 1478 1480 1482 1484 1486 1488 1490 1493 1494 1494
1479 1472 1462 1462 1462 1463 1475 1478 1471 1473 1484 1485 1457 1449 1436 1440 1441 1441 1442 1441 1442 1442 1442 1443 1444 1445 1448 1452 1456 1460 1463 1466 1469 1472 1473 1476 1478 1480 1481 1482 1485 1488 1489 1490
1459 1467 1458 1461 1461 1465 1465 1466 1473 1480 1473 1475 1455 1451 1432 1434 1433 1438 1439 1440 1441 1442 1442 1444 1445 1446 1448 1450 1453 1457 1460 1462 1465 1469 1469 1472 1473 1476 1477 1478 1480 1482 1484 1485
1459 1463 1458 1460 1460 1458 1468 1467 1467 1468 1469 1456 1447 1425 1420 1419 1421 1426 1432 1436 1438 1440 1441 1443 1445 1446 1447 1450 1452 1454 1456 1459 1461 1464 1465 1469 1471 1471 1473 1476 1477 1478 1479 1480
1452 1461 1455 1451 1444 1444 1445 1447 1449 1452 1452 1458 1452 1414 1419 1419 1419 1420 1428 1432 1435 1438 1441 1441 1444 1446 1447 1447 1451 1453 1453 1455 1457 1460 1461 1466 1468 1468 1467 1471 1472 1474 1475 1476
1448 1456 1456 1442 1448 1446 1443 1443 1441 1440 1447 1425 1435 1410 1421 1422 1423 1422 1423 1428 1430 1432 1437 1443 1441 1446 1449 1450 1448 1453 1453 1452 1455 1458 1459 1462 1464 1466 1466 1468 1469 1471 1473 1472
1439 1443 1437 1426 1424 1433 1442 1438 1437 1432 1430 1423 1417 1409 1402 1419 1419 1421 1422 1423 1429 1431 1435 1436 1444 1441 1444 1448 1448 1450 1452 1450 1451 1454 1456 1459 1461 1462 1463 1465 1466 1467 1468 1468
1440 1439 1435 1425 1420 1426 1422 1420 1417 1422 1413 1416 1403 1409 1385 1399 1403 1406 1412 1421 1425 1427 1432 1435 1440 1441 1442 1446 1447 1449 1450 1451 1449 1452 1453 1455 1457 1458 1460 1463 1463 1464 1465 1464
1434 1425 1427 1419 1412 1416 1412 1405 1403 1406 1401 1402 1394 1387 1380 1391 1396 1402 1407 1414 1420 1424 1429 1434 1436 1440 1444 1445 1445 1448 1450 1451 1451 1451 1452 1454 1456 1456 1457 1459 1459 1460 1461 1459
1431 1423 1420 1403 1402 1404 1400 1392 1393 1389 1390 1389 1387 1377 1391 1397 1400 1405 1409 1415 1420 1426 1430 1432 1437 1441 1444 1446 1445 1446 1447 1450 1450 1448 1450 1453 1455 1456 1457 1457 1457 1456 1454 1453
1417 1416 1416 1392 1400 1384 1389 1404 1402 1401 1419 1425 1411 1416 1414 1412 1414 1411 1415 1418 1424 1430 1434 1437 1438 1440 1444 1445 1445 1444 1445 1447 1448 1448 1449 1450 1450 1451 1451 1452 1454 1453 1450 1448
1417 1406 1392 1388 1380 1374 1391 1428 1437 1433 1426 1437 1426 1431 1428 1424 1417 1423 1424 1427 1432 1436 1435 1438 1441 1440 1443 1445 1443 1444 1445 1446 1447 1447 1447 1447 1446 1446 1446 1446 1445 1444 1445 1443
1415 1417 1414 1401 1385 1372 1451 1446 1443 1439 1429 1449 1443 1437 1436 1428 1425 1434 1433 1434 1434 1438 1439 1438 1440 1440 1440 1442 1442 1443 1443 1443 1443 1443 1443 1443 1441 1440 1439 1439 1438 1439 1438 1435
1429 1428 1425 1417 1412 1453 1466 1450 1435 1419 1461 1461 1456 1450 1446 1444 1442 1439 1438 1439 1440 1440 1440 1441 1440 1439 1438 1439 1441 1442 1442 1440 1438 1437 1437 1436 1435 1434 1433 1431 1432 1430 1428 1427
1447 1459 1447 1439 1423 1429 1468 1452 1460 1476 1469 1467 1462 1459 1459 1455 1449 1445 1442 1439 1443 1439 1440 1441 1442 1441 1437 1436 1437 1436 1438 1436 1433 1432 1432 1430 1429 1429 1427 1426 1425 1423 1421 1423
1464 1486 1476 1481 1486 1489 1486 1484 1483 1478 1471 1470 1467 1465 1462 1457 1451 1452 1447 1440 1440 1441 1441 1440 1440 1438 1434 1433 1433 1432 1431 1430 1429 1426 1425 1425 1423 1422 1420 1418 1417 1416 1418 1415
1488 1487 1485 1484 1489 1490 1488 1485 1484 1480 1477 1475 1470 1467 1463 1457 1456 1453 1446 1443 1442 1438 1438 1437 1438 1433 1430 1429 1429 1427 1428 1424 1421 1420 1418 1418 1416 1415 1413 1411 1410 1412 1409 1406
1506 1499 1498 1489 1489 1487 1486 1486 1484 1481 1478 1474 1470 1465 1460 1457 1452 1449 1445 1441 1439 1435 1435 1432 1433 1429 1426 1426 1425 1424 1421 1417 1414 1412 1411 1409 1407 1407 1406 1408 1403 1402 1399 1398
1512 1510 1508 1501 1499 1498 1490 1487 1483 1480 1475 1471 1464 1459 1456 1452 1447 1445 1443 1441 1438 1433 1432 1430 1425 1423 1422 1420 1417 1416 1413 1409 1407 1404 1402 1402 1401 1401 1400 1397 1393 1394 1392 1392